Weather History for Elbow Lake, MN

Change the Weather History Date:

Thursday, December 5, 2013

  Actual Average (KFFM) Record (KFFM)
Temperature  
Mean Temperature -3 °F -  
Max Temperature 4 °F 27 °F 46 °F (1979)
Min Temperature -11 °F 11 °F -18 °F (1991)
Degree Days  
Heating Degree Days 68    
Moisture  
Dew Point -7 °F    
Average Humidity 80    
Maximum Humidity 87    
Minimum Humidity 74    
Precipitation  
Precipitation 0.00 in - - ()
Sea Level Pressure  
Sea Level Pressure 30.06 in    
Wind  
Wind Speed 17 mph (WNW)    
Max Wind Speed 23 mph    
Max Gust Speed 30 mph    
Visibility 8 miles    
Events      
Averages and records for this station are not official NWS values.
T = Trace of Precipitation, MM = Missing Value Source: NWS Daily Summary

Daily Weather History Graph

Daily Weather History Graph

Search for Another Location

Airport:

Trip Planner

Search our weather history database for the weather conditions in past years. The results will help you decide how hot, cold, wet, or windy it might be!

Date:

Astronomy

Dec. 05, 2013 Rise Set
Actual Time 7:50 AM CST 4:39 PM CST
Civil Twilight 7:16 AM CST 5:13 PM CST
Nautical Twilight 6:38 AM CST 5:50 PM CST
Astronomical Twilight 6:02 AM CST 6:27 PM CST
Moon 10:06 AM CST (12/5) 8:06 PM CST (12/5)
Length of Visible Light 9h 57m
Length of Day
8h 49m
Waxing Crescent, 11% of the Moon is Illuminated
Dec 5
Waxing Crescent
Dec 9
First Quarter
Dec 17
Full
Dec 25
Last Quarter
Jan 1
New

Hourly Weather History & Observations

Time (CST) Temp. Windchill Dew Point Humidity Pressure Visibility Wind Dir Wind Speed Gust Speed Precip Events Conditions
12:14 AM 4.1 °F -16.9 °F 1.0 °F 87% 29.75 in 2.0 mi WNW 20.7 mph 25.3 mph N/A   Overcast
12:34 AM 4.5 °F -15.4 °F 1.0 °F 86% 29.76 in 2.0 mi WNW 18.4 mph 27.6 mph N/A   Overcast
12:54 AM 4.1 °F -15.9 °F 0.9 °F 86% 29.78 in 3.0 mi WNW 18.4 mph 25.3 mph N/A   Overcast
1:14 AM 4.1 °F -15.9 °F 0.5 °F 85% 29.79 in 3.0 mi WNW 18.4 mph 24.2 mph N/A   Overcast
1:34 AM 3.7 °F -15.8 °F 0.1 °F 85% 29.81 in 3.0 mi WNW 17.3 mph 21.9 mph N/A   Mostly Cloudy
1:54 AM 3.7 °F -14.6 °F 0.5 °F 86% 29.81 in 3.0 mi WNW 15.0 mph 19.6 mph N/A   Mostly Cloudy
2:14 AM 3.7 °F -16.4 °F 0.5 °F 86% 29.82 in 2.5 mi WNW 18.4 mph 23.0 mph N/A   Overcast
2:34 AM 3.7 °F -15.2 °F 0.5 °F 86% 29.84 in 2.5 mi WNW 16.1 mph - N/A   Overcast
2:54 AM 3.2 °F -15.9 °F -0.4 °F 85% 29.84 in 4.0 mi WNW 16.1 mph 23.0 mph N/A   Overcast
3:14 AM 3.2 °F -16.5 °F -0.4 °F 85% 29.85 in 4.0 mi WNW 17.3 mph - N/A   Overcast
3:34 AM 2.7 °F -18.8 °F -0.9 °F 85% 29.86 in 2.5 mi WNW 20.7 mph 26.5 mph N/A   Overcast
3:54 AM 1.4 °F -21.4 °F -2.2 °F 85% 29.87 in 4.0 mi WNW 23.0 mph 29.9 mph N/A   Scattered Clouds
4:14 AM 0.7 °F -21.4 °F -2.9 °F 85% 29.88 in 4.0 mi WNW 20.7 mph 26.5 mph N/A   Clear
4:34 AM 0.1 °F -21.6 °F -3.6 °F 84% 29.89 in 3.0 mi WNW 19.6 mph - N/A   Clear
4:54 AM -0.6 °F -23.1 °F -4.2 °F 85% 29.91 in 4.0 mi WNW 20.7 mph 26.5 mph N/A   Scattered Clouds
5:14 AM -1.3 °F -22.3 °F -5.3 °F 83% 29.92 in 7.0 mi WNW 17.3 mph - N/A   Clear
5:34 AM -1.7 °F -22.8 °F -5.6 °F 83% 29.92 in 5.0 mi WNW 17.3 mph - N/A   Clear
5:54 AM -1.8 °F -22.4 °F -6.2 °F 82% 29.93 in 10.0 mi WNW 16.1 mph 21.9 mph N/A   Clear
6:14 AM -2.2 °F -23.5 °F -6.7 °F 81% 29.93 in 7.0 mi WNW 17.3 mph 23.0 mph N/A   Clear
6:33 AM -2.4 °F -23.7 °F -6.7 °F 82% 29.95 in 10.0 mi WNW 17.3 mph 23.0 mph N/A   Clear
6:54 AM -2.7 °F -24.2 °F -6.9 °F 82% 29.95 in 10.0 mi WNW 17.3 mph 23.0 mph N/A   Clear
7:14 AM -2.7 °F -25.4 °F -7.1 °F 82% 29.96 in 7.0 mi WNW 19.6 mph - N/A   Scattered Clouds
7:34 AM -3.3 °F -24.9 °F -7.1 °F 84% 29.96 in 7.0 mi WNW 17.3 mph - N/A   Scattered Clouds
7:54 AM -3.5 °F -25.1 °F -7.6 °F 82% 29.96 in 10.0 mi WNW 17.3 mph - N/A   Clear
8:14 AM -4.0 °F -26.4 °F -8.1 °F 82% 29.98 in 10.0 mi WNW 18.4 mph 26.5 mph N/A   Clear
8:34 AM -4.0 °F -27.6 °F -8.1 °F 82% 29.98 in 7.0 mi WNW 20.7 mph 26.5 mph N/A   Clear
8:54 AM -3.6 °F -26.5 °F -8.0 °F 82% 29.99 in 10.0 mi WNW 19.6 mph 24.2 mph N/A   Clear
9:14 AM -3.3 °F -26.1 °F -8.0 °F 80% 30.01 in 10.0 mi West 19.6 mph - N/A   Clear
9:34 AM -3.1 °F -26.4 °F -8.0 °F 80% 30.03 in 10.0 mi West 20.7 mph 25.3 mph N/A   Clear
9:54 AM -2.4 °F -26.0 °F -7.8 °F 78% 30.04 in 10.0 mi West 21.9 mph 28.8 mph N/A   Clear
10:14 AM -1.8 °F -24.7 °F -7.1 °F 78% 30.05 in 7.0 mi WNW 20.7 mph 28.8 mph N/A   Clear
10:34 AM -1.5 °F -24.8 °F -7.1 °F 77% 30.06 in 10.0 mi WNW 21.9 mph 28.8 mph N/A   Clear
10:54 AM -1.1 °F -24.3 °F -6.9 °F 77% 30.07 in 10.0 mi WNW 21.9 mph 28.8 mph N/A   Clear
11:14 AM -0.8 °F -22.8 °F -6.7 °F 76% 30.08 in 10.0 mi WNW 19.6 mph 25.3 mph N/A   Clear
11:34 AM -0.4 °F -19.9 °F -6.7 °F 75% 30.09 in 10.0 mi WNW 15.0 mph 26.5 mph N/A   Clear
11:54 AM -0.4 °F -23.3 °F -6.3 °F 76% 30.09 in 10.0 mi WNW 21.9 mph 26.5 mph N/A   Clear
12:14 PM -0.0 °F -22.4 °F -6.2 °F 75% 30.10 in 10.0 mi WNW 20.7 mph 26.5 mph N/A   Clear
12:34 PM 0.1 °F -22.6 °F -5.8 °F 76% 30.11 in 7.0 mi WNW 21.9 mph 29.9 mph N/A   Clear
12:54 PM 0.3 °F -21.4 °F -6.0 °F 75% 30.11 in 10.0 mi WNW 19.6 mph 24.2 mph N/A   Clear
1:14 PM 0.3 °F -19.6 °F -6.2 °F 74% 30.11 in 10.0 mi WNW 16.1 mph 23.0 mph N/A   Clear
1:35 PM 0.5 °F -21.6 °F -6.0 °F 74% 30.11 in 10.0 mi West 20.7 mph - N/A   Clear
1:54 PM 0.3 °F -20.2 °F -6.0 °F 75% 30.11 in 10.0 mi WNW 17.3 mph 24.2 mph N/A   Clear
2:14 PM 0.1 °F -19.8 °F -6.2 °F 75% 30.11 in 10.0 mi WNW 16.1 mph - N/A   Clear
2:35 PM 0.1 °F -18.5 °F -6.0 °F 75% 30.12 in 10.0 mi WNW 13.8 mph - N/A   Clear
2:54 PM -0.0 °F -22.4 °F -6.2 °F 75% 30.11 in 10.0 mi WNW 20.7 mph 25.3 mph N/A   Clear
3:14 PM -0.4 °F -20.5 °F -6.5 °F 75% 30.13 in 10.0 mi WNW 16.1 mph - N/A   Clear
3:34 PM -0.8 °F -19.6 °F -6.7 °F 76% 30.14 in 10.0 mi WNW 13.8 mph - N/A   Clear
3:54 PM -1.3 °F -16.8 °F -7.1 °F 77% 30.15 in 10.0 mi WNW 9.2 mph - N/A   Clear
4:14 PM -2.0 °F -18.7 °F -7.6 °F 77% 30.15 in 10.0 mi WNW 10.4 mph - N/A   Clear
4:34 PM -3.1 °F -20.1 °F -8.3 °F 78% 30.15 in 10.0 mi WNW 10.4 mph - N/A   Clear
4:54 PM -4.2 °F -21.4 °F -9.4 °F 78% 30.15 in 10.0 mi WNW 10.4 mph - N/A   Clear
5:14 PM -4.2 °F -23.2 °F -9.4 °F 78% 30.15 in 10.0 mi WNW 12.7 mph - N/A   Clear
5:34 PM -4.9 °F -23.2 °F -10.3 °F 78% 30.16 in 10.0 mi WNW 11.5 mph - N/A   Clear
5:54 PM -4.9 °F -23.2 °F -10.1 °F 78% 30.17 in 10.0 mi WNW 11.5 mph - N/A   Clear
6:14 PM -4.9 °F -23.2 °F -10.3 °F 78% 30.18 in 10.0 mi WNW 11.5 mph - N/A   Clear
6:34 PM -5.3 °F -19.3 °F -10.7 °F 77% 30.19 in 10.0 mi WNW 6.9 mph - N/A   Clear
6:54 PM -5.8 °F -22.4 °F -10.7 °F 79% 30.20 in 10.0 mi WNW 9.2 mph - N/A   Clear
7:14 PM -6.9 °F -17.9 °F -11.9 °F 79% 30.21 in 10.0 mi WNW 4.6 mph - N/A   Clear
7:34 PM -6.7 °F -24.5 °F -11.7 °F 79% 30.22 in 10.0 mi WNW 10.4 mph - N/A   Clear
7:54 PM -6.9 °F -26.6 °F -12.1 °F 78% 30.23 in 10.0 mi West 12.7 mph - N/A   Clear
8:14 PM -7.1 °F -25.9 °F -12.3 °F 78% 30.24 in 10.0 mi West 11.5 mph - N/A   Clear
8:34 PM -8.7 °F -27.0 °F -13.4 °F 80% 30.25 in 10.0 mi West 10.4 mph - N/A   Clear
8:54 PM -8.1 °F -27.3 °F -13.0 °F 79% 30.25 in 10.0 mi West 11.5 mph - N/A   Clear
9:14 PM -8.9 °F -29.1 °F -13.9 °F 79% 30.26 in 10.0 mi West 12.7 mph - N/A   Clear
9:34 PM -9.6 °F -28.1 °F -14.1 °F 81% 30.26 in 10.0 mi West 10.4 mph - N/A   Clear
9:54 PM -8.7 °F -27.0 °F -13.0 °F 81% 30.26 in 10.0 mi West 10.4 mph - N/A   Clear
10:14 PM -9.4 °F - -13.9 °F 81% 30.27 in 10.0 mi Calm Calm - N/A   Clear
10:35 PM -10.7 °F - -14.8 °F 82% 30.28 in 10.0 mi Calm Calm - N/A   Clear
10:54 PM -9.4 °F - -13.7 °F 81% 30.28 in 10.0 mi Calm Calm - N/A   Clear
11:14 PM -10.7 °F - -15.2 °F 80% 30.29 in 10.0 mi Calm Calm - N/A   Clear
11:33 PM -10.3 °F - -14.8 °F 81% 30.30 in 10.0 mi Calm Calm - N/A   Clear
11:54 PM -11.2 °F - -15.3 °F 82% 30.31 in 10.0 mi Calm Calm - N/A   Clear